Dewpoint
74 74 72 72 73 74 73 73 74 73 73 73 74 72 73 73 73 73 74 73 74 75 75 75 76 75 77 76 77 76 77 76 75 76 75 75 75 74 72 72 72 70
75 74 74 73 74 75 74 74 74 73 73 73 74 74 72 73 73 73 73 73 74 75 75 75 76 76 76 76 76 76 76 76 74 77 76 75 75 74 73 73 73 71
75 74 74 73 74 74 73 74 74 74 73 73 74 74 73 73 73 74 73 73 73 75 75 75 75 76 76 76 76 76 76 75 74 76 76 74 75 75 75 74 73 73
75 75 73 73 74 74 73 73 73 74 73 74 74 74 74 74 74 74 73 76 73 74 75 75 75 75 75 75 75 74 75 74 75 76 75 76 76 76 75 74 75 73
74 75 74 73 73 74 73 73 72 73 73 74 74 74 74 74 74 74 74 74 73 74 75 74 75 74 75 74 75 74 75 75 75 75 74 74 74 76 76 75 74 73
74 74 74 73 73 73 73 73 73 72 73 73 73 74 73 73 74 74 74 74 73 74 74 74 74 74 74 74 75 75 75 75 75 75 74 74 75 75 75 74 74 73
74 73 73 73 72 72 72 72 73 74 73 73 74 73 72 73 73 73 74 74 74 75 74 74 74 74 74 74 75 75 74 75 75 74 75 75 75 75 75 74 74 74
73 73 73 73 72 72 72 72 72 73 72 72 72 72 72 72 73 73 74 73 74 74 74 73 74 74 74 74 75 75 74 75 75 75 74 74 74 74 75 75 74 73
73 73 73 72 71 71 71 71 71 72 73 72 71 71 72 71 72 73 74 73 73 73 74 73 73 73 74 74 74 74 74 74 74 75 75 75 74 74 75 74 74 73
72 72 72 71 70 71 71 70 70 71 73 71 71 71 71 71 72 72 73 73 73 73 73 73 73 73 74 74 74 74 74 74 74 74 75 75 75 75 74 74 72 72
71 72 71 71 70 70 70 70 70 70 71 71 70 70 71 71 72 71 73 73 72 72 72 72 73 73 73 73 74 74 74 74 74 74 75 75 75 75 77 74 73 72
70 70 71 71 70 69 69 69 70 69 70 71 70 70 70 71 71 71 71 72 72 72 73 73 73 73 73 73 74 74 74 74 74 74 74 74 74 73 73 74 73 73
69 69 70 70 70 70 69 69 69 69 69 70 70 69 69 69 70 70 72 72 72 72 73 73 73 74 74 74 73 73 73 73 73 74 74 74 74 73 73 72 71 70
69 69 69 69 69 69 69 69 69 68 69 70 70 69 69 69 69 70 71 72 72 72 72 73 73 73 73 73 73 73 73 73 73 73 73 72 72 72 72 71 71 70
69 69 68 68 69 68 67 68 68 68 68 69 70 69 68 68 69 69 72 72 72 72 73 73 74 73 73 74 74 74 74 73 73 73 73 72 71 70 70 70 69 68
69 69 69 69 69 68 67 67 67 67 68 68 69 69 68 69 69 69 70 71 72 72 71 71 73 74 75 77 77 75 74 73 73 73 72 72 72 71 70 70 69 67
70 69 69 70 71 69 68 67 69 69 68 68 69 69 69 69 69 68 68 69 70 71 71 70 69 69 69 66 68 70 76 74 72 72 72 72 71 71 70 71 69 69
69 69 69 70 72 72 73 73 73 73 72 71 71 71 72 71 69 69 68 68 68 68 68 67 66 66 63 65 67 68 72 73 73 71 71 71 71 70 70 69 70 71
70 69 69 72 72 73 73 73 73 72 72 72 72 73 73 71 70 69 69 68 67 68 67 67 64 62 62 63 64 65 66 74 72 72 70 70 69 69 68 69 72 73
71 71 70 71 71 72 72 71 71 71 70 71 72 72 73 73 72 70 69 68 68 68 66 64 62 62 60 62 62 63 65 70 72 71 71 70 69 70 73 73 72 72
68 67 67 68 69 70 70 70 70 69 70 70 70 71 72 72 72 71 70 69 66 65 63 62 61 59 59 60 60 61 64 72 72 72 71 71 72 74 74 74 73 73
70 69 68 67 67 67 69 70 69 69 69 70 70 70 71 72 72 72 70 67 65 64 63 61 60 58 58 58 58 61 69 73 72 72 72 73 74 74 74 74 73 71
71 70 69 69 69 69 69 70 70 70 69 70 69 70 71 71 72 72 70 67 66 65 63 62 62 59 56 56 56 59 68 70 71 73 72 73 74 74 73 72 72 71
70 70 69 69 69 68 70 71 72 72 71 71 69 70 71 71 71 71 71 69 66 64 63 62 61 59 55 54 55 57 66 68 70 72 72 72 73 73 74 73 74 74
70 70 70 69 69 69 69 70 70 70 70 70 70 70 70 70 71 69 69 68 67 67 67 64 63 61 55 55 55 58 65 66 68 69 71 71 72 72 71 69 70 72
70 70 70 69 69 69 69 69 70 69 69 69 69 70 70 70 70 69 68 68 68 67 66 64 63 62 61 55 56 58 63 67 67 68 69 71 72 72 69 68 68 68